• In Hungary
  • List of Countries
  • For 7 days
  • Water Temperature
  • Satellite Maps
  • Weather Map
  • News
  • Weather Widgets
  • user-avatar
    Login

    Hourly Weather Volodki

    Today, 14 December, Thursday

    Time Temperature Precipitation Wind Pressure Humidity
    00:00 -5°C° 0 mm 2 mps 736 mmHg 92%
    01:00 -5°C° 0 mm 2 mps 735 mmHg 92%
    02:00 -5°C° 0 mm 2 mps 735 mmHg 93%
    03:00 -6°C° 0 mm 3 mps 734 mmHg 93%
    04:00 -6°C° 0 mm 3 mps 734 mmHg 93%
    05:00 -6°C° 0 mm 3 mps 733 mmHg 93%
    06:00 -7°C° 0 mm 4 mps 733 mmHg 94%
    07:00 -7°C° 0 mm 4 mps 732 mmHg 94%
    08:00 -7°C° 0 mm 4 mps 731 mmHg 94%
    09:00 -6°C° 0 mm 5 mps 731 mmHg 93%
    10:00 -5°C° 0 mm 5 mps 730 mmHg 92%
    11:00 -5°C° 0 mm 5 mps 730 mmHg 91%
    12:00 -4°C° 0 mm 6 mps 729 mmHg 90%
    13:00 -4°C° 0 mm 6 mps 728 mmHg 88%
    14:00 -3°C° 0 mm 6 mps 728 mmHg 87%
    15:00 -3°C° 0.1 mm 6 mps 727 mmHg 87%
    16:00 -3°C° 0.1 mm 6 mps 727 mmHg 88%
    17:00 -2°C° 0.1 mm 6 mps 726 mmHg 88%
    18:00 -2°C° 0.2 mm 6 mps 726 mmHg 88%
    19:00 -2°C° 0.2 mm 6 mps 725 mmHg 88%
    20:00 -2°C° 0.2 mm 7 mps 725 mmHg 89%
    21:00 -2°C° 0.3 mm 7 mps 724 mmHg 88%
    22:00 -2°C° 0.3 mm 7 mps 724 mmHg 88%
    23:00 -2°C° 0.3 mm 7 mps 724 mmHg 87%

    Tomorrow, 15 December, Friday

    Time Temperature Precipitation Wind Pressure Humidity
    00:00 -2°C° 0 mm 7 mps 724 mmHg 86%
    01:00 -2°C° 0 mm 7 mps 724 mmHg 84%
    02:00 -2°C° 0 mm 8 mps 725 mmHg 83%
    03:00 -2°C° 0 mm 7 mps 725 mmHg 84%
    04:00 -3°C° 0 mm 6 mps 726 mmHg 84%
    05:00 -3°C° 0 mm 6 mps 726 mmHg 85%
    06:00 -2°C° 0 mm 5 mps 727 mmHg 87%
    07:00 -3°C° 0 mm 4 mps 728 mmHg 88%
    08:00 -3°C° 0 mm 4 mps 728 mmHg 89%
    09:00 -3°C° 0 mm 4 mps 729 mmHg 88%
    10:00 -3°C° 0 mm 4 mps 729 mmHg 87%
    11:00 -3°C° 0 mm 4 mps 729 mmHg 86%
    12:00 -2°C° 0 mm 4 mps 729 mmHg 85%
    13:00 -2°C° 0 mm 4 mps 729 mmHg 84%
    14:00 -2°C° 0 mm 4 mps 729 mmHg 83%
    15:00 -2°C° 0 mm 4 mps 729 mmHg 85%
    16:00 -2°C° 0 mm 4 mps 728 mmHg 87%
    17:00 -2°C° 0 mm 5 mps 728 mmHg 89%
    18:00 -2°C° 0.1 mm 5 mps 728 mmHg 88%
    19:00 -2°C° 0.1 mm 6 mps 727 mmHg 86%
    20:00 -2°C° 0.1 mm 6 mps 727 mmHg 85%
    21:00 -2°C° 0.6 mm 6 mps 726 mmHg 87%
    22:00 -2°C° 0.6 mm 6 mps 725 mmHg 90%
    23:00 -1°C° 0.6 mm 7 mps 724 mmHg 92%

    Day after tomorrow, 16 December, Saturday

    Time Temperature Precipitation Wind Pressure Humidity
    00:00 -1°C° 0.5 mm 6 mps 725 mmHg 93%
    01:00 -2°C° 0.5 mm 6 mps 725 mmHg 93%
    02:00 -2°C° 0.5 mm 6 mps 725 mmHg 94%
    03:00 -2°C° 0 mm 6 mps 726 mmHg 93%
    04:00 -1°C° 0 mm 5 mps 726 mmHg 91%
    05:00 -2°C° 0 mm 5 mps 727 mmHg 90%
    06:00 -2°C° 0 mm 4 mps 727 mmHg 91%
    07:00 -2°C° 0 mm 3 mps 728 mmHg 92%
    08:00 -2°C° 0 mm 3 mps 728 mmHg 94%
    09:00 -2°C° 0 mm 3 mps 729 mmHg 94%
    10:00 -2°C° 0 mm 2 mps 729 mmHg 94%
    11:00 -3°C° 0 mm 2 mps 729 mmHg 94%
    12:00 -2°C° 0 mm 2 mps 729 mmHg 94%
    13:00 -2°C° 0 mm 2 mps 729 mmHg 94%
    14:00 -2°C° 0 mm 2 mps 729 mmHg 93%
    15:00 -2°C° 0 mm 2 mps 730 mmHg 93%
    16:00 -3°C° 0 mm 2 mps 730 mmHg 94%
    17:00 -3°C° 0 mm 2 mps 730 mmHg 94%
    18:00 -3°C° 0 mm 2 mps 731 mmHg 94%
    19:00 -3°C° 0 mm 2 mps 731 mmHg 95%
    20:00 -1°C° 0 mm 1 mps 731 mmHg 95%
    21:00 -3°C° 0 mm 2 mps 731 mmHg 94%
    22:00 -3°C° 0 mm 2 mps 732 mmHg 94%
    23:00 -3°C° 0 mm 2 mps 732 mmHg 94%

    17 December, Sunday

    Time Temperature Precipitation Wind Pressure Humidity
    00:00 -3°C° 0 mm 2 mps 733 mmHg 94%
    01:00 -4°C° 0 mm 2 mps 733 mmHg 94%
    02:00 -4°C° 0 mm 2 mps 733 mmHg 93%
    03:00 -4°C° 0 mm 2 mps 733 mmHg 94%
    04:00 -2°C° 0 mm 1 mps 734 mmHg 94%
    05:00 -2°C° 0 mm 1 mps 734 mmHg 94%
    06:00 -2°C° 0 mm 1 mps 734 mmHg 94%
    07:00 -2°C° 0 mm 1 mps 734 mmHg 94%
    08:00 -2°C° 0 mm 1 mps 735 mmHg 94%
    09:00 -2°C° 0 mm 1 mps 735 mmHg 93%
    10:00 -1°C° 0 mm 1 mps 735 mmHg 92%
    11:00 -1°C° 0 mm 1 mps 736 mmHg 91%
    12:00 -1°C° 0 mm 1 mps 735 mmHg 90%
    13:00 0°C° 0 mm 1 mps 735 mmHg 90%
    14:00 0°C° 0 mm 1 mps 735 mmHg 89%
    15:00 -1°C° 0 mm 1 mps 735 mmHg 89%
    16:00 -1°C° 0 mm 1 mps 735 mmHg 90%
    17:00 -1°C° 0 mm 1 mps 735 mmHg 90%
    18:00 -2°C° 0 mm 1 mps 735 mmHg 90%
    19:00 -4°C° 0 mm 2 mps 735 mmHg 90%
    20:00 -4°C° 0 mm 2 mps 735 mmHg 90%
    21:00 -4°C° 0 mm 2 mps 735 mmHg 90%
    22:00 -4°C° 0 mm 2 mps 735 mmHg 90%
    23:00 -4°C° 0 mm 2 mps 734 mmHg 90%

    18 December, Monday

    Time Temperature Precipitation Wind Pressure Humidity
    00:00 -5°C° 0 mm 3 mps 734 mmHg 90%
    01:00 -5°C° 0 mm 3 mps 734 mmHg 90%
    02:00 -5°C° 0 mm 3 mps 734 mmHg 90%
    03:00 -5°C° 0 mm 3 mps 734 mmHg 90%
    04:00 -5°C° 0 mm 3 mps 733 mmHg 89%
    05:00 -5°C° 0 mm 3 mps 733 mmHg 89%
    06:00 -5°C° 0 mm 3 mps 733 mmHg 89%
    07:00 -7°C° 0 mm 4 mps 733 mmHg 89%
    08:00 -7°C° 0 mm 4 mps 733 mmHg 90%
    09:00 -7°C° 0 mm 4 mps 733 mmHg 90%
    10:00 -7°C° 0 mm 4 mps 734 mmHg 90%
    11:00 -5°C° 0 mm 4 mps 734 mmHg 90%
    12:00 -5°C° 0 mm 4 mps 734 mmHg 89%
    13:00 -5°C° 0 mm 4 mps 734 mmHg 87%
    14:00 -5°C° 0 mm 4 mps 735 mmHg 86%
    15:00 -5°C° 0 mm 4 mps 735 mmHg 87%
    16:00 -5°C° 0 mm 4 mps 736 mmHg 87%
    17:00 -5°C° 0 mm 3 mps 736 mmHg 87%
    18:00 -5°C° 0 mm 3 mps 737 mmHg 88%
    19:00 -5°C° 0 mm 3 mps 737 mmHg 89%
    20:00 -5°C° 0 mm 3 mps 738 mmHg 90%
    21:00 -5°C° 0 mm 3 mps 738 mmHg 91%
    22:00 -5°C° 0 mm 3 mps 739 mmHg 91%
    23:00 -5°C° 0 mm 3 mps 739 mmHg 92%

    19 December, Tuesday

    Time Temperature Precipitation Wind Pressure Humidity
    00:00 -5°C° 0 mm 3 mps 740 mmHg 93%
    01:00 -5°C° 0 mm 3 mps 740 mmHg 93%
    02:00 -5°C° 0 mm 3 mps 740 mmHg 94%
    03:00 -5°C° 0.1 mm 3 mps 741 mmHg 94%
    04:00 -4°C° 0.1 mm 2 mps 741 mmHg 94%
    05:00 -4°C° 0.1 mm 2 mps 742 mmHg 95%
    06:00 -4°C° 0 mm 2 mps 742 mmHg 95%
    07:00 -4°C° 0 mm 2 mps 743 mmHg 95%
    08:00 -5°C° 0 mm 2 mps 743 mmHg 95%
    09:00 -5°C° 0 mm 2 mps 744 mmHg 94%
    10:00 -5°C° 0 mm 3 mps 744 mmHg 93%
    11:00 -5°C° 0 mm 3 mps 745 mmHg 92%
    12:00 -5°C° 0 mm 3 mps 745 mmHg 90%
    13:00 -5°C° 0 mm 3 mps 745 mmHg 89%
    14:00 -5°C° 0 mm 3 mps 745 mmHg 88%
    15:00 -6°C° 0 mm 3 mps 745 mmHg 89%
    16:00 -6°C° 0 mm 3 mps 745 mmHg 90%
    17:00 -7°C° 0 mm 3 mps 746 mmHg 91%
    18:00 -7°C° 0 mm 3 mps 746 mmHg 92%
    19:00 -6°C° 0 mm 2 mps 746 mmHg 93%
    20:00 -6°C° 0 mm 2 mps 746 mmHg 94%
    21:00 -6°C° 0 mm 2 mps 746 mmHg 93%
    22:00 -6°C° 0 mm 2 mps 746 mmHg 93%
    23:00 -5°C° 0 mm 2 mps 746 mmHg 92%
    Show more